Home > Weather > Erie > Past weeks

Flag for USA Past Weather in Erie, Pennsylvania, USA — Yesterday and Last 2 Weeks

Now
72 °F

Clear.


Feels Like: 74 °F
Forecast: 72 / 87 °F
Wind: 12 mph from South

Location: Erie International Airport

Current Time: Jun 26, 2016 at 4:23:42 AM

Latest Report: Jun 26, 2016 at 3:51 AM


Visibility: 10 mi

Pressure: 30.09 "Hg

Humidity: 71%

Dew Point: 62 °F

Location of ErieLocation

Past Weather in Erie — Graph

°F

Erie Temperature Yesterday

Maximum temperature yesterday: 85 °F (at 3:51 PM)
Minimum temperature yesterday: 57 °F (at 5:51 AM)
Average temperature yesterday: 73 °F

High & Low Weather Summary for the Past Weeks

 TemperatureHumidityPressure
High92 °F (Jun 20, 4:51 PM)97% (Jun 17, 5:51 AM)30.30 "Hg (Jun 17, 5:51 AM)
Low51 °F (Jun 14, 4:51 AM)23% (Jun 18, 5:51 PM)29.66 "Hg (Jun 16, 2:51 PM)
Average71 °F57%29.98 "Hg
* Reported Jun 11 2:51 AM — Jun 26 2:51 AM, Erie, Weather by CustomWeather, © 2016

Note: Actual official high and low records may vary slightly from our data, if they occured in-between our weather recording intervals... More about our weather records

Advertising

Erie Weather History for the Previous 24 Hours

Scroll right to see more
 ConditionsComfort  
Time TempWeatherWind HumidityBarometerVisibility
2:51 AM
Sun, Jun 26
72 °FClear.13 mph73%30.10 "Hg10 mi
1:51 AM73 °FClear.12 mph66%30.10 "Hg10 mi
12:51 AM73 °FClear.10 mph55%30.11 "Hg10 mi
11:51 PM
Sat, Jun 25
72 °FClear.9 mph53%30.10 "Hg10 mi
10:51 PM73 °FClear.5 mph50%30.09 "Hg10 mi
9:51 PM74 °FSunny.3 mph46%30.09 "Hg10 mi
8:51 PM77 °FSunny.6 mph39%30.10 "Hg10 mi
7:51 PM81 °FSunny.8 mph33%30.11 "Hg10 mi
6:51 PM82 °FSunny.8 mph34%30.11 "Hg10 mi
5:51 PM83 °FSunny.9 mph34%30.12 "Hg10 mi
4:51 PM84 °FSunny.7 mph35%30.13 "Hg10 mi
3:51 PM85 °FSunny.9 mph30%30.14 "Hg10 mi
2:51 PM81 °FSunny.7 mph49%30.16 "Hg10 mi
1:51 PM79 °FSunny.9 mph54%30.16 "Hg10 mi
12:51 PM80 °FSunny.7 mph47%30.14 "Hg10 mi
11:51 AM77 °FSunny.8 mph56%30.16 "Hg10 mi
10:51 AM77 °FSunny.8 mph56%30.17 "Hg10 mi
9:51 AM78 °FSunny.5 mph54%30.16 "Hg10 mi
8:51 AM75 °FSunny.No wind52%30.15 "Hg10 mi
7:51 AM67 °FSunny.No wind66%30.15 "Hg10 mi
6:51 AM60 °FSunny.No wind80%30.14 "Hg10 mi
5:51 AM57 °FClear.3 mph83%30.13 "Hg10 mi
4:51 AM58 °FClear.5 mph81%30.12 "Hg10 mi
Weather by CustomWeather, © 2016

See weather overviewHow to use our weather pages